Simultaneous Nadir Overpasses (SNOs) Predictions

Prediction of SNOs between FY3D and AQUA Satellite Orbit:

Table of predicted SNOs for the next 14.0 days since TLE Epoch: 9/30/2023
Index Date (FY3D) Time (FY3D) Lat,Lon (FY3D) SZA (FY3D ) Date (AQUA) Time (AQUA) Lat,Lon (AQUA) SZA (AQUA ) Distance(km) Time Diff (sec)
1 09/30/2023 03:56:08 -78.63, -76.40 98.37 09/30/2023 03:55:08 -78.63, -76.29 98.37 2.58 60
2 10/02/2023 16:00:23 79.12, -80.76 83.25 10/02/2023 16:01:30 79.11, -80.67 83.22 2.02 67
3 10/02/2023 16:50:58 -78.74, 89.25 97.26 10/02/2023 16:50:44 -78.74, 89.21 97.26 0.83 14
4 10/05/2023 05:45:52 -78.99,-106.15 95.96 10/05/2023 05:46:22 -78.99,-106.10 95.97 1.24 30
5 10/05/2023 06:36:29 78.69, 63.23 83.66 10/05/2023 06:35:39 78.68, 63.33 83.66 2.28 50
6 10/07/2023 18:40:43 -79.18, 58.84 94.75 10/07/2023 18:41:56 -79.17, 58.94 94.78 2.35 73
7 10/07/2023 19:31:20 78.88,-131.73 84.88 10/07/2023 19:31:13 78.87,-131.60 84.86 3.10 7
8 10/10/2023 08:26:11 79.05, 33.47 86.04 10/10/2023 08:26:46 79.03, 33.60 86.02 2.90 35
9 10/10/2023 09:16:46 -78.65,-156.53 94.47 10/10/2023 09:16:00 -78.65,-156.53 94.46 0.22 46
10 10/12/2023 21:22:51 81.17, 161.51 92.34 10/12/2023 21:24:04 81.73, 161.72 92.61 62.00 73



Historial Predications of SNOs between FY3D and AQUA
